Date String (YYYY-MM-DD hh:mm:ss) UTC,Instrument flags,Ambient pressure (hPa),Sample flow (lpm),Bypass flow (lpm),Sample temperature (°C),Ambient temperature (°C),ASC tube jacket temperature (°C),LED temperature (°C),Box temperature (°C),Sample RH (%),Span deviation,Mass concentration (μg/m³),Mass concentration (μg/m³),Mass concentration (μg/m³)
DateTimeUTC,F1_M11,P_M11,Q1_M11,Q2_M11,T1_M11,T2_M11,T3_M11,T4_M11,T5_M11,U1_M11,ZSPAN_M11,X0_M11,X2_M11,X1_M11
2022-11-30 03:00:00,,0823.1,4.98,0.00,21.9,20.4,00.0,31.0,23.6,09.1,0000.0,0008.38,0005.27,0004.88
2022-11-30 03:01:00,,0823.1,4.99,0.00,21.9,20.3,00.0,31.0,23.6,09.2,0000.0,0008.76,0005.31,0004.91
2022-11-30 03:02:00,,0823.2,5.00,0.00,21.9,20.1,00.0,30.9,23.6,09.2,0000.0,0008.97,0005.33,0004.93
2022-11-30 03:03:00,,0823.2,5.01,0.00,21.9,20.6,00.0,30.9,23.6,09.1,0000.0,0009.00,0005.34,0004.94
2022-11-30 03:04:00,,0823.1,5.00,0.00,22.0,21.6,00.0,30.8,23.9,09.1,0000.0,0009.00,0005.34,0004.95
2022-11-30 03:05:00,,0823.2,4.98,0.00,22.1,22.4,00.0,30.8,24.1,09.1,0000.0,0009.05,0005.37,0004.98
2022-11-30 03:06:00,,0823.2,5.02,0.00,22.2,22.2,00.0,30.9,24.1,09.0,0000.0,0009.13,0005.41,0005.00
2022-11-30 03:07:00,,0823.1,4.99,0.00,22.2,21.7,00.0,30.9,24.0,09.0,0000.0,0009.17,0005.42,0005.00
2022-11-30 03:08:00,,0823.1,5.00,0.00,22.1,21.4,00.0,31.0,23.9,09.0,0000.0,0009.17,0005.37,0004.94
2022-11-30 03:09:00,,0823.1,4.99,0.00,22.1,21.1,00.0,31.0,23.9,09.1,0000.0,0009.10,0005.32,0004.90
2022-11-30 03:10:00,,0823.1,5.01,0.00,22.1,20.9,00.0,31.0,23.9,09.1,0000.0,0009.04,0005.30,0004.90
2022-11-30 03:11:00,,0823.0,5.01,0.00,22.1,20.8,00.0,31.0,23.8,09.0,0000.0,0008.98,0005.29,0004.91
2022-11-30 03:12:00,,0823.1,4.99,0.00,22.1,20.7,00.0,31.0,23.8,09.0,0000.0,0008.61,0005.30,0004.91
2022-11-30 03:13:00,,0823.1,5.00,0.00,22.0,20.6,00.0,31.0,23.8,09.0,0000.0,0008.43,0005.31,0004.93
2022-11-30 03:14:00,,0823.1,5.01,0.00,22.0,20.5,00.0,31.0,23.7,09.0,0000.0,0008.38,0005.31,0004.95
2022-11-30 03:15:00,,0823.1,5.00,0.00,22.0,20.4,00.0,31.0,23.7,09.0,0000.0,0008.46,0005.34,0004.96
2022-11-30 03:16:00,,0823.1,5.01,0.00,22.0,21.1,00.0,30.9,23.8,09.0,0000.0,0008.87,0005.33,0004.97
2022-11-30 03:17:00,,0823.2,4.99,0.00,22.1,22.1,00.0,30.9,24.0,08.9,0000.0,0009.04,0005.30,0004.97
2022-11-30 03:18:00,,0823.1,4.99,0.00,22.2,22.5,00.0,30.9,24.2,08.9,0000.0,0008.97,0005.28,0004.98
2022-11-30 03:19:00,,0823.1,5.00,0.00,22.2,22.1,00.0,31.0,24.2,08.9,0000.0,0008.94,0005.27,0004.98
2022-11-30 03:20:00,,0823.1,5.01,0.00,22.2,21.6,00.0,31.0,24.1,08.9,0000.0,0008.91,0005.27,0004.99
2022-11-30 03:21:00,,0823.1,5.00,0.00,22.2,21.1,00.0,31.0,24.0,09.0,0000.0,0009.15,0005.31,0005.00
2022-11-30 03:22:00,,0823.0,4.99,0.00,22.1,20.7,00.0,31.0,23.8,09.0,0000.0,0009.42,0005.31,0005.00
2022-11-30 03:23:00,,0823.0,5.00,0.00,22.1,20.5,00.0,31.0,23.7,09.0,0000.0,0009.42,0005.31,0005.01
2022-11-30 03:24:00,,0823.1,5.02,0.00,22.0,20.4,00.0,31.0,23.7,09.1,0000.0,0009.45,0005.32,0005.02
2022-11-30 03:25:00,,0823.2,4.99,0.00,22.0,20.4,00.0,31.0,23.7,09.1,0000.0,0009.49,0005.33,0005.02
2022-11-30 03:26:00,,0823.2,4.99,0.00,22.0,20.3,00.0,31.0,23.7,09.1,0000.0,0009.42,0005.33,0005.03
2022-11-30 03:27:00,,0823.1,5.01,0.00,21.9,20.2,00.0,31.0,23.6,09.1,0000.0,0009.03,0005.33,0005.05
2022-11-30 03:28:00,,0823.1,5.01,0.00,21.9,20.4,00.0,30.9,23.6,09.1,0000.0,0008.67,0005.36,0005.07
2022-11-30 03:29:00,,0823.2,5.00,0.00,22.0,21.2,00.0,30.9,23.8,09.0,0000.0,0008.81,0005.41,0005.09
2022-11-30 03:30:00,,0823.2,4.98,0.00,22.1,22.0,00.0,30.9,24.0,09.0,0000.0,0008.78,0005.41,0005.10
2022-11-30 03:31:00,,0823.2,5.01,0.00,22.1,21.9,00.0,30.9,24.1,09.0,0000.0,0008.72,0005.40,0005.11
2022-11-30 03:32:00,,0823.4,5.01,0.00,22.1,21.6,00.0,31.0,24.0,09.1,0000.0,0008.51,0005.40,0005.12
2022-11-30 03:33:00,,0823.3,5.00,0.00,22.1,21.3,00.0,31.0,23.9,09.1,0000.0,0008.32,0005.46,0005.14
2022-11-30 03:34:00,,0823.3,5.01,0.00,22.1,21.1,00.0,31.0,23.9,09.0,0000.0,0008.34,0005.50,0005.17
2022-11-30 03:35:00,,0823.2,5.00,0.00,22.1,20.9,00.0,31.0,23.9,08.9,0000.0,0008.39,0005.52,0005.18
2022-11-30 03:36:00,,0823.2,5.00,0.00,22.1,20.7,00.0,31.0,23.8,08.9,0000.0,0008.41,0005.53,0005.19
2022-11-30 03:37:00,,0823.2,5.02,0.00,22.0,20.6,00.0,31.0,23.8,08.9,0000.0,0008.45,0005.55,0005.20
2022-11-30 03:38:00,,0823.2,5.00,0.00,22.0,20.5,00.0,31.0,23.8,08.9,0000.0,0008.57,0005.54,0005.20
2022-11-30 03:39:00,,0823.2,4.99,0.00,22.0,20.5,00.0,31.0,23.7,09.0,0000.0,0009.00,0005.54,0005.20
2022-11-30 03:40:00,,0823.2,5.00,0.00,22.0,21.2,00.0,30.9,23.9,08.9,0000.0,0009.01,0005.53,0005.22
2022-11-30 03:41:00,,0823.2,5.01,0.00,22.1,22.1,00.0,30.9,24.1,08.8,0000.0,0009.42,0005.57,0005.24
2022-11-30 03:42:00,,0823.1,5.00,0.00,22.2,22.2,00.0,30.9,24.2,08.8,0000.0,0009.48,0005.61,0005.26
2022-11-30 03:43:00,,0823.2,4.98,0.00,22.2,21.8,00.0,31.0,24.1,08.9,0000.0,0009.49,0005.64,0005.28
2022-11-30 03:44:00,,0823.2,5.01,0.00,22.2,21.5,00.0,31.0,24.1,08.9,0000.0,0009.77,0005.63,0005.31
2022-11-30 03:45:00,,0823.2,5.00,0.00,22.2,21.2,00.0,31.0,24.0,08.9,0000.0,0009.88,0005.65,0005.33
2022-11-30 03:46:00,,0823.3,5.00,0.00,22.1,21.1,00.0,31.0,23.9,08.8,0000.0,0009.89,0005.65,0005.35
2022-11-30 03:47:00,,0823.3,5.00,0.00,22.1,20.9,00.0,31.0,23.9,08.7,0000.0,0009.88,0005.66,0005.39
2022-11-30 03:48:00,,0823.4,5.01,0.00,22.1,20.7,00.0,31.0,23.8,08.8,0000.0,0009.92,0005.70,0005.43
2022-11-30 03:49:00,,0823.6,5.00,0.00,22.1,20.6,00.0,31.0,23.8,08.9,0000.0,0009.87,0005.74,0005.45
2022-11-30 03:50:00,,0823.5,4.99,0.00,22.0,20.4,00.0,31.0,23.7,08.9,0000.0,0009.50,0005.79,0005.49
2022-11-30 03:51:00,,0823.4,5.00,0.00,22.0,20.9,00.0,31.0,23.8,08.9,0000.0,0009.44,0005.82,0005.52
2022-11-30 03:52:00,,0823.4,5.00,0.00,22.1,21.9,00.0,30.9,24.0,08.8,0000.0,0009.11,0005.83,0005.54
2022-11-30 03:53:00,,0823.5,4.99,0.00,22.2,22.2,00.0,31.0,24.2,08.6,0000.0,0009.12,0005.86,0005.59
2022-11-30 03:54:00,,0823.6,5.01,0.00,22.2,21.7,00.0,31.0,24.1,08.6,0000.0,0009.14,0005.87,0005.63
2022-11-30 03:55:00,,0823.5,5.00,0.00,22.2,21.3,00.0,31.0,24.0,08.7,0000.0,0008.82,0005.91,0005.67
2022-11-30 03:56:00,,0823.3,4.98,0.00,22.1,21.0,00.0,31.1,23.9,08.9,0000.0,0008.77,0005.95,0005.72
2022-11-30 03:57:00,,0823.3,4.99,0.00,22.1,20.8,00.0,31.1,23.8,08.9,0000.0,0008.77,0006.02,0005.78
2022-11-30 03:58:00,,0823.4,5.00,0.00,22.1,20.7,00.0,31.0,23.8,09.0,0000.0,0008.91,0006.11,0005.85
2022-11-30 03:59:00,,0823.3,5.01,0.00,22.0,20.5,00.0,31.0,23.8,09.0,0000.0,0008.94,0006.16,0005.90
